Ravenna, OH

6:12 PM EDT on August 23, 2017 (GMT -0400)
Ravenna

Weather History for KPOV - December, 2013

Change the Weather History Date:

Saturday, December 14, 2013

  Actual Average (KCAK) Record (KCAK)
Temperature  
Mean Temperature 28 °F -  
Max Temperature 33 °F 39 °F 63 °F (1975)
Min Temperature 23 °F 25 °F 0 °F (1898)
Degree Days  
Heating Degree Days 37    
Moisture  
Dew Point 25 °F    
Average Humidity 95    
Maximum Humidity 100    
Minimum Humidity 71    
Precipitation  
Precipitation 0.00 in - - ()
Sea Level Pressure  
Sea Level Pressure 29.95 in    
Wind  
Wind Speed 7 mph (East)    
Max Wind Speed 13 mph    
Max Gust Speed 18 mph    
Visibility 4 miles    
Events Rain , Snow    
Averages and records for this station are not official NWS values.
T = Trace of Precipitation, MM = Missing Value Source: NWS Daily Summary

Daily Weather History Graph

Daily Weather History Graph

Search for Another Location

Airport or City:

Trip Planner

Search our weather history database for the weather conditions in past years. The results will help you decide how hot, cold, wet, or windy it might be!

Date:

Astronomy

Dec. 14, 2013 Rise Set
Actual Time 7:42 AM EST 4:56 PM EST
Civil Twilight 7:11 AM EST 5:27 PM EST
Nautical Twilight 6:36 AM EST 6:02 PM EST
Astronomical Twilight 6:03 AM EST 6:36 PM EST
Moon 3:18 PM EST (12/14) 5:01 AM EST (12/14)
Length of Visible Light 10h 16m
Length of Day
9h 13m
Waxing Gibbous, 93% of the Moon is Illuminated
Dec 14
Waxing Gibbous
Dec 17
Full
Dec 25
Last Quarter
Jan 1
New
Jan 7
First Quarter

Hourly Weather History & Observations

Time (EST) Temp. Windchill Dew Point Humidity Pressure Visibility Wind Dir Wind Speed Gust Speed Precip Events Conditions
12:15 AM 24.6 °F 18.8 °F 16.9 °F 72% 30.21 in 10.0 mi ENE 4.6 mph - N/A   Overcast
12:35 AM 24.8 °F 17.9 °F 16.5 °F 71% 30.20 in 10.0 mi East 5.8 mph - N/A   Overcast
12:55 AM 25.0 °F 18.1 °F 16.9 °F 71% 30.20 in 10.0 mi East 5.8 mph - N/A   Overcast
1:15 AM 25.2 °F 18.3 °F 16.9 °F 71% 30.20 in 10.0 mi East 5.8 mph - N/A   Overcast
1:35 AM 25.3 °F 21.1 °F 17.1 °F 71% 30.20 in 10.0 mi East 3.5 mph - N/A Snow Light Snow
1:55 AM 24.8 °F 19.1 °F 18.9 °F 78% 30.21 in 1.5 mi East 4.6 mph - N/A Snow Light Snow
2:15 AM 23.9 °F 16.8 °F 20.8 °F 88% 30.21 in 1.5 mi ENE 5.8 mph - N/A Snow Light Snow
2:35 AM 23.7 °F 15.6 °F 21.9 °F 93% 30.20 in 2.0 mi ENE 6.9 mph - N/A Snow Light Snow
2:55 AM 23.7 °F 14.0 °F 22.6 °F 96% 30.19 in 3.0 mi ENE 9.2 mph - N/A Snow Light Snow
3:15 AM 23.9 °F 15.0 °F 22.6 °F 95% 30.20 in 4.0 mi East 8.1 mph - N/A Snow Light Snow
3:35 AM 23.9 °F 15.8 °F 22.6 °F 95% 30.19 in 3.0 mi East 6.9 mph - N/A Snow Light Snow
3:54 AM 23.9 °F 16.8 °F 22.6 °F 95% 30.18 in 4.0 mi East 5.8 mph - N/A Snow Light Snow
4:15 AM 23.9 °F 15.0 °F 22.6 °F 95% 30.18 in 5.0 mi East 8.1 mph - N/A Snow Light Snow
4:34 AM 23.9 °F 15.0 °F 22.6 °F 95% 30.17 in 5.0 mi East 8.1 mph - N/A Snow Light Snow
4:55 AM 23.9 °F 16.8 °F 22.6 °F 95% 30.16 in 7.0 mi East 5.8 mph - N/A   Overcast
5:15 AM 23.9 °F 16.8 °F 22.8 °F 96% 30.15 in 7.0 mi East 5.8 mph - N/A Snow Light Snow
5:35 AM 23.9 °F 15.8 °F 22.8 °F 96% 30.15 in 7.0 mi ENE 6.9 mph - N/A Snow Light Snow
5:55 AM 23.9 °F 18.0 °F 23.2 °F 97% 30.15 in 5.0 mi East 4.6 mph - N/A Snow Light Snow
6:15 AM 23.9 °F 18.0 °F 23.5 °F 99% 30.15 in 2.5 mi East 4.6 mph - N/A Snow Light Snow
6:35 AM 23.9 °F 15.8 °F 23.9 °F 100% 30.15 in 3.0 mi East 6.9 mph - N/A Snow Light Snow
6:54 AM 23.9 °F 15.0 °F 24.1 °F 100% 30.15 in 1.5 mi East 8.1 mph - N/A Snow Light Snow
7:15 AM 24.3 °F 16.3 °F 24.4 °F 100% 30.15 in 3.0 mi ENE 6.9 mph - N/A Snow Light Snow
7:35 AM 24.4 °F 16.5 °F 24.6 °F 100% 30.14 in 2.5 mi East 6.9 mph - N/A Snow Light Snow
7:54 AM 24.3 °F 16.3 °F 24.4 °F 100% 30.12 in 3.0 mi East 6.9 mph - N/A Snow Light Snow
8:15 AM 24.4 °F 14.9 °F 24.6 °F 100% 30.12 in 5.0 mi East 9.2 mph - N/A   Overcast
8:34 AM 24.8 °F 16.1 °F 24.8 °F 100% 30.11 in 7.0 mi East 8.1 mph - N/A   Overcast
8:55 AM 25.2 °F 16.5 °F 24.8 °F 99% 30.11 in 5.0 mi East 8.1 mph - N/A Snow Light Snow
9:15 AM 25.2 °F 15.7 °F 24.6 °F 98% 30.12 in 5.0 mi East 9.2 mph - N/A Snow Light Snow
9:35 AM 25.7 °F 15.7 °F 24.3 °F 94% 30.10 in 5.0 mi East 10.4 mph - N/A Snow Light Snow
9:55 AM 25.9 °F 16.6 °F 23.9 °F 92% 30.10 in 2.5 mi East 9.2 mph - N/A Snow Light Snow
10:15 AM 26.4 °F 18.0 °F 23.5 °F 89% 30.09 in 1.2 mi East 8.1 mph - N/A Snow Light Snow
10:35 AM 26.6 °F 16.8 °F 24.8 °F 93% 30.08 in 1.0 mi East 10.4 mph - N/A Snow Light Snow
10:54 AM 27.1 °F 17.5 °F 26.1 °F 96% 30.06 in 0.8 mi East 10.4 mph - N/A Snow Light Snow
11:15 AM 27.5 °F 18.0 °F 27.1 °F 99% 30.05 in 1.2 mi East 10.4 mph - N/A Snow Light Snow
11:35 AM 28.2 °F 18.9 °F 28.2 °F 100% 30.02 in 1.2 mi East 10.4 mph - N/A Snow Light Snow
11:54 AM 28.6 °F 18.7 °F 28.4 °F 99% 30.00 in 1.2 mi East 11.5 mph 18.4 mph N/A Snow Light Snow
12:15 PM 28.4 °F 18.5 °F 28.2 °F 99% 29.98 in 1.2 mi East 11.5 mph - N/A Snow Light Snow
12:35 PM 28.9 °F 19.2 °F 28.6 °F 99% 29.95 in 1.0 mi East 11.5 mph - N/A Snow Light Snow
12:54 PM 28.9 °F 18.6 °F 28.9 °F 100% 29.92 in 1.2 mi East 12.7 mph - N/A Snow Light Snow
1:15 PM 29.3 °F 20.2 °F 29.3 °F 100% 29.90 in 1.2 mi East 10.4 mph - N/A Snow Light Snow
1:34 PM 29.3 °F 20.8 °F 29.3 °F 100% 29.88 in 1.2 mi East 9.2 mph 16.1 mph N/A Snow Light Snow
1:55 PM 29.3 °F 20.2 °F 29.7 °F 100% 29.87 in 1.2 mi East 10.4 mph - N/A Snow Light Snow
2:15 PM 29.7 °F 21.3 °F 29.8 °F 100% 29.86 in 0.8 mi East 9.2 mph - N/A Snow Light Snow
2:35 PM 29.7 °F 20.7 °F 29.8 °F 100% 29.85 in 0.8 mi East 10.4 mph - N/A Snow Light Snow
2:54 PM 30.2 °F 21.9 °F 30.2 °F 100% 29.83 in 0.5 mi East 9.2 mph - N/A Snow Snow
3:15 PM 30.2 °F 21.3 °F 30.2 °F 100% 29.82 in 1.0 mi East 10.4 mph - N/A Snow Light Snow
3:34 PM 30.2 °F 21.9 °F 30.2 °F 100% 29.81 in 1.5 mi East 9.2 mph - N/A Snow Light Snow
3:55 PM 30.7 °F 22.6 °F 30.9 °F 100% 29.80 in 1.2 mi East 9.2 mph - N/A Snow Light Snow
4:15 PM - - - N/A% 29.79 in 1.2 mi East 10.4 mph - N/A   Unknown
4:35 PM 31.1 °F 23.7 °F 31.1 °F 100% 29.78 in 1.2 mi East 8.1 mph - N/A Snow Light Snow
4:55 PM 31.3 °F 23.9 °F 31.5 °F 100% 29.77 in 2.0 mi East 8.1 mph - N/A Snow Light Snow
5:15 PM 31.6 °F 23.7 °F 31.8 °F 100% 29.75 in 5.0 mi East 9.2 mph - N/A Snow Light Snow
5:35 PM 31.8 °F 25.4 °F 32.0 °F 100% 29.75 in 5.0 mi East 6.9 mph - N/A Snow Light Snow
5:54 PM 32.0 °F 25.6 °F 32.0 °F 100% 29.74 in 7.0 mi East 6.9 mph - N/A Rain Light Rain
6:15 PM 32.0 °F 25.6 °F - N/A% 29.73 in 7.0 mi East 6.9 mph - N/A   Light Drizzle
6:35 PM 32.5 °F 26.2 °F - N/A% 29.72 in 7.0 mi East 6.9 mph - N/A   Drizzle
6:54 PM 32.9 °F 25.9 °F - N/A% 29.71 in 7.0 mi East 8.1 mph - N/A Rain Rain
7:15 PM 32.9 °F 25.9 °F - N/A% 29.70 in 7.0 mi ESE 8.1 mph - N/A   Drizzle
7:35 PM 32.9 °F 27.5 °F - N/A% 29.70 in 4.0 mi ESE 5.8 mph - N/A Rain Rain
7:54 PM 32.9 °F 27.5 °F - N/A% 29.69 in 4.0 mi ESE 5.8 mph - N/A Rain Light Rain
8:15 PM 33.1 °F 28.7 °F - N/A% 29.68 in 5.0 mi ESE 4.6 mph - N/A Rain Light Rain
8:35 PM 32.9 °F 28.5 °F - N/A% 29.67 in 4.0 mi East 4.6 mph - N/A Rain Light Rain
8:54 PM 32.9 °F 28.5 °F - N/A% 29.66 in 3.0 mi ESE 4.6 mph - N/A Rain Light Rain
9:15 PM 33.1 °F 30.0 °F - N/A% 29.66 in 4.0 mi SE 3.5 mph - N/A Rain Light Rain
9:34 PM 33.1 °F - - N/A% 29.65 in 4.0 mi Calm Calm - N/A Rain Light Rain
9:55 PM 33.1 °F - - N/A% 29.65 in 3.0 mi Calm Calm - N/A Rain Light Rain
10:15 PM 33.1 °F - - N/A% 29.64 in 2.5 mi Calm Calm - N/A Rain Light Rain
10:34 PM 33.3 °F - - N/A% 29.64 in 2.5 mi Calm Calm - N/A Rain Light Rain
10:55 PM 33.3 °F - - N/A% 29.63 in 2.5 mi Calm Calm - N/A Rain Light Rain
11:15 PM 33.4 °F - - N/A% 29.63 in 2.5 mi Calm Calm - N/A Rain Light Rain
11:34 PM 32.9 °F - - N/A% 29.63 in 1.8 mi Calm Calm - N/A Rain Light Rain
11:55 PM 33.8 °F 29.6 °F - N/A% 29.63 in 3.0 mi WSW 4.6 mph - N/A Rain Light Rain